Back to catalog

GAOFEN 3 DEB

AliveSSO
NORAD 42679·DEBRIS·🇨🇳 China

Launched Aug 9, 2016 from Taiyuan Satellite Launch Center

Loading…

Next Passes (next 24 hours)

TLE

FreshSource: Space-Track

Epoch: Sep 14, 2026, 06:34 UTC

1 42679U 16049D   26257.27406146  .00000099  00000-0  39330-4 0  9990
2 42679  98.3196 267.1097 0007978  85.9333 274.2771 14.46689468532714

Track GAOFEN 3 DEB in real time with AllMySat

Download on the App Store